East Coast - Cape St. Francis and south: Past 24 Hour Conditions

 

Stephenville Airport

04:30 PM NDT 01 September 2014
This table is a summary of hourly weather conditions for the past 24 hours.
Date / Time
(NDT)
Wind(knots) Conditions Visibility(km) Pressure(kPa) Air tempC) Relative humidity(%) Dew pointC) Humidex
01 September 2014
16:30 NNW 12 gust 18 Mainly Sunny 24 101.4 22 51 11 *
15:30 NNW 12 gust 17 Mainly Sunny 24 101.4 22 49 11 *
14:30 WNW 7 Mainly Sunny 24 101.4 22 51 12 *
13:30 WSW 8 Mainly Sunny 24 101.4 22 67 15 26
12:30 WSW 9 Mainly Sunny 24 101.4 21 70 15 25
11:30 W 8 Mainly Sunny 24 101.4 20 75 16 25
10:30 SW 5 Mainly Sunny 24 101.4 19 82 16 *
9:30 calm Mainly Sunny 24 101.4 18 84 15 *
8:30 calm Partly Cloudy 24 101.3 17 87 15 *
7:30 calm Mostly Cloudy 24 101.3 16 90 14 *
6:30 calm Mostly Cloudy 19 101.2 16 91 15 *
5:30 calm Cloudy 13 101.2 16 93 15 *
4:30 WNW 4 Cloudy 19 101.1 16 92 15 *
3:30 NNW 4 Cloudy 24 101.1 16 91 15 *
2:30 WNW 8 Light Rainshower 24 101.0 17 89 15 *
1:30 WNW 7 Light Rainshower 5 101.0 17 91 15 *
0:30 W 6 Light Rainshower 5 101.0 17 92 15 *
31 August 2014
23:30 SW 14 Rainshower 5 101.0 17 91 15 *
22:30 WSW 12 gust 20 Light Rainshower 19 101.1 17 91 15 *
21:30 WSW 20 Light Rainshower 16 101.1 17 91 15 *
20:30 WSW 10 Light Rainshower 19 101.1 16 91 15 *
19:30 WSW 20 Light Rainshower 5 101.1 16 92 15 *
18:30 WSW 20 Light Rainshower 10 101.1 16 91 15 *
17:30 SSW 15 gust 20 Light Rainshower 10 101.2 16 91 14 *
16:30 WSW 20 Light Rainshower 10 101.2 16 89 14 *
 
Map of Atlantic - Newfoundland marine weather areas Southwestern Grand Banks - 44138 Banquereau - 44139 Tail of the Bank - 44140 Nickerson Bank - 44251 Northeast Burgeo Bank - 44255 Blanc-Sablon Airport Cap Whittle Chevery Natashquan Airport Heath Point Miscou Island Grand Étang Ingonish Beach North Mountain St.Paul Island J.A. Douglas McCurdy Sydney Airport Charlottetown Airport East Point North Cape Argentia Bonavista Burgeo Cape Race Corner Brook Daniel's Harbour Englee Ferolle Point La Scie Port aux Basques Rocky Harbour Sagona Island St. Anthony Airport St. John's Int'l Airport St. Lawrence Stephenville Airport Twillingate Winterland Wreckhouse Cartwright Airport Mary's Harbour Grates Cove Pool's Island Marticot Island Long Pond Îles de la Madeleine Airport
Legend: buoyBuoy land stationLand Station